Location: Alt?nova Orta
(36.9295°N, 30.7847°E)
Time: 00:08:50
(UTC+00:00)

PAYLOAD B - Pass Details

Date: 17 February 2020
Orbit: 848 x 872 km, 99.1° (Epoch: 09 April)

Event Time Altitude Azimuth Distance (km) Brightness Sun altitude
Rises 03:47:53 0° 9° (N) 3,459 7.4 -11.8°
Reaches altitude 10° 03:50:18 10° 6° (N) 2,514 6.7 -11.4°
Maximum altitude 03:55:47 60° 288° (WNW) 982 4.3 -10.3°
Drops below altitude 10° 04:01:12 10° 209° (SSW) 2,484 6.4 -9.2°
Sets 04:03:35 0° 206° (SSW) 3,413 7.2 -8.7°
